Time,TemperatureF,DewpointF,PressureIn,WindDirection,WindDirectionDegrees,WindSpeedMPH,WindSpeedGustMPH,Humidity,HourlyPrecipIn,Conditions,Clouds,dailyrainin,SolarRadiationWatts/m^2,SoftwareType,DateUTC
2013-02-25 00:06:00,60.0,48.2,29.60,ESE,113,10.0,13.0,65,0.00,,,0.00,0,Wunderground v.1.15,2013-02-25 06:06:00,
2013-02-25 00:12:00,60.0,47.8,29.59,SE,126,10.0,14.0,64,0.00,,,0.00,0,Wunderground v.1.15,2013-02-25 06:12:00,
2013-02-25 00:19:00,59.9,47.7,29.59,ESE,118,10.0,14.0,64,0.00,,,0.00,0,Wunderground v.1.15,2013-02-25 06:19:00,
2013-02-25 00:26:00,59.8,47.6,29.59,ESE,121,10.0,11.0,64,0.00,,,0.00,0,Wunderground v.1.15,2013-02-25 06:26:00,
2013-02-25 00:32:00,59.7,47.5,29.59,ESE,118,11.0,15.0,64,0.00,,,0.00,0,Wunderground v.1.15,2013-02-25 06:32:00,
2013-02-25 00:40:00,59.5,47.7,29.58,ESE,107,11.0,16.0,65,0.00,,,0.00,0,Wunderground v.1.15,2013-02-25 06:40:00,
2013-02-25 00:46:00,59.4,47.6,29.57,ESE,118,12.0,16.0,65,0.00,,,0.00,0,Wunderground v.1.15,2013-02-25 06:46:00,
2013-02-25 00:52:00,59.3,47.5,29.56,ESE,115,13.0,14.0,65,0.00,,,0.00,0,Wunderground v.1.15,2013-02-25 06:52:00,
2013-02-25 00:59:00,59.0,47.2,29.55,ESE,113,13.0,19.0,65,0.00,,,0.00,0,Wunderground v.1.15,2013-02-25 06:59:00,
2013-02-25 01:04:00,58.9,47.2,29.55,ESE,114,13.0,14.0,65,0.00,,,0.00,0,Wunderground v.1.15,2013-02-25 07:04:00,
2013-02-25 01:10:00,58.8,47.5,29.55,ESE,107,13.0,14.0,66,0.00,,,0.00,0,Wunderground v.1.15,2013-02-25 07:10:00,
2013-02-25 01:16:00,58.9,47.6,29.54,ESE,118,13.0,14.0,66,0.00,,,0.00,0,Wunderground v.1.15,2013-02-25 07:16:00,
2013-02-25 01:22:00,58.9,47.6,29.54,ESE,116,12.0,15.0,66,0.00,,,0.00,0,Wunderground v.1.15,2013-02-25 07:22:00,
2013-02-25 01:30:00,59.0,47.7,29.54,ESE,115,11.0,11.0,66,0.00,,,0.00,0,Wunderground v.1.15,2013-02-25 07:30:00,
2013-02-25 01:36:00,59.1,47.7,29.55,ESE,109,12.0,15.0,66,0.00,,,0.00,0,Wunderground v.1.15,2013-02-25 07:36:00,
2013-02-25 01:42:00,59.3,48.3,29.54,ESE,113,11.0,12.0,67,0.00,,,0.00,0,Wunderground v.1.15,2013-02-25 07:42:00,
2013-02-25 01:48:00,59.5,48.9,29.55,ESE,119,11.0,12.0,68,0.00,,,0.00,0,Wunderground v.1.15,2013-02-25 07:48:00,
2013-02-25 01:54:00,59.6,49.4,29.55,ESE,121,11.0,14.0,69,0.00,,,0.00,0,Wunderground v.1.15,2013-02-25 07:54:00,
2013-02-25 02:00:00,59.7,49.5,29.55,ESE,117,9.0,9.0,69,0.00,,,0.00,0,Wunderground v.1.15,2013-02-25 08:00:00,
2013-02-25 02:06:00,59.8,49.6,29.55,ESE,114,8.0,12.0,69,0.00,,,0.00,0,Wunderground v.1.15,2013-02-25 08:06:00,
2013-02-25 02:12:00,59.9,50.1,29.55,ESE,116,8.0,8.0,70,0.00,,,0.00,0,Wunderground v.1.15,2013-02-25 08:12:00,
2013-02-25 02:18:00,60.0,50.6,29.55,ESE,114,7.0,8.0,71,0.00,,,0.00,0,Wunderground v.1.15,2013-02-25 08:18:00,
2013-02-25 02:24:00,60.0,50.6,29.56,ESE,121,6.0,7.0,71,0.00,,,0.00,0,Wunderground v.1.15,2013-02-25 08:24:00,
2013-02-25 02:30:00,60.1,51.0,29.56,SE,131,6.0,6.0,72,0.00,,,0.00,0,Wunderground v.1.15,2013-02-25 08:30:00,
2013-02-25 02:36:00,60.1,51.0,29.55,SE,133,6.0,8.0,72,0.00,,,0.00,0,Wunderground v.1.15,2013-02-25 08:36:00,
2013-02-25 02:42:00,60.1,51.4,29.55,SE,130,6.0,6.0,73,0.00,,,0.00,0,Wunderground v.1.15,2013-02-25 08:42:00,
2013-02-25 02:50:00,60.1,51.8,29.55,SE,131,5.0,5.0,74,0.00,,,0.00,0,Wunderground v.1.15,2013-02-25 08:50:00,
2013-02-25 02:56:00,60.0,51.7,29.55,SE,131,6.0,6.0,74,0.00,,,0.00,0,Wunderground v.1.15,2013-02-25 08:56:00,
2013-02-25 03:02:00,60.0,52.1,29.55,SE,134,6.0,6.0,75,0.00,,,0.00,0,Wunderground v.1.15,2013-02-25 09:02:00,
2013-02-25 03:09:00,59.9,52.0,29.54,SE,132,6.0,6.0,75,0.00,,,0.00,0,Wunderground v.1.15,2013-02-25 09:09:00,
2013-02-25 03:16:00,59.7,51.8,29.53,SE,131,8.0,8.0,75,0.00,,,0.00,0,Wunderground v.1.15,2013-02-25 09:16:00,
2013-02-25 03:22:00,59.7,51.8,29.52,SE,132,9.0,12.0,75,0.00,,,0.00,0,Wunderground v.1.15,2013-02-25 09:22:00,
2013-02-25 03:29:00,59.6,51.7,29.52,SE,146,9.0,12.0,75,0.00,,,0.00,0,Wunderground v.1.15,2013-02-25 09:29:00,
2013-02-25 03:36:00,59.6,52.0,29.52,SSE,161,8.0,11.0,76,0.00,,,0.00,0,Wunderground v.1.15,2013-02-25 09:36:00,
2013-02-25 03:42:00,59.5,51.9,29.53,SSE,161,8.0,9.0,76,0.00,,,0.00,0,Wunderground v.1.15,2013-02-25 09:42:00,
2013-02-25 03:48:00,59.5,51.9,29.53,SSE,159,8.0,11.0,76,0.00,,,0.00,0,Wunderground v.1.15,2013-02-25 09:48:00,
2013-02-25 03:54:00,59.5,52.3,29.55,SSE,162,7.0,9.0,77,0.00,,,0.00,0,Wunderground v.1.15,2013-02-25 09:54:00,
2013-02-25 04:00:00,59.5,52.3,29.56,South,175,7.0,7.0,77,0.00,,,0.00,0,Wunderground v.1.15,2013-02-25 10:00:00,
2013-02-25 04:06:00,59.5,52.3,29.55,South,175,6.0,7.0,77,0.00,,,0.00,0,Wunderground v.1.15,2013-02-25 10:06:00,
2013-02-25 04:12:00,59.5,52.6,29.55,South,175,5.0,6.0,78,0.00,,,0.00,0,Wunderground v.1.15,2013-02-25 10:12:00,
2013-02-25 04:19:00,59.5,53.0,29.55,South,175,5.0,6.0,79,0.00,,,0.00,0,Wunderground v.1.15,2013-02-25 10:19:00,
2013-02-25 04:24:00,59.5,53.0,29.56,South,175,5.0,7.0,79,0.00,,,0.00,0,Wunderground v.1.15,2013-02-25 10:24:00,
2013-02-25 04:30:00,59.4,52.9,29.56,South,175,5.0,5.0,79,0.00,,,0.00,0,Wunderground v.1.15,2013-02-25 10:30:00,
2013-02-25 04:36:00,59.4,52.9,29.56,South,175,5.0,5.0,79,0.00,,,0.00,0,Wunderground v.1.15,2013-02-25 10:36:00,
2013-02-25 04:42:00,59.2,53.0,29.57,South,175,6.0,7.0,80,0.00,,,0.00,0,Wunderground v.1.15,2013-02-25 10:42:00,
2013-02-25 04:48:00,59.1,52.9,29.56,South,175,5.0,7.0,80,0.00,,,0.00,0,Wunderground v.1.15,2013-02-25 10:48:00,
2013-02-25 04:54:00,59.0,52.8,29.56,South,175,4.0,5.0,80,0.00,,,0.00,0,Wunderground v.1.15,2013-02-25 10:54:00,
2013-02-25 05:00:00,58.9,53.1,29.56,South,175,5.0,7.0,81,0.00,,,0.00,0,Wunderground v.1.15,2013-02-25 11:00:00,
2013-02-25 05:06:00,58.7,52.9,29.56,South,175,4.0,7.0,81,0.00,,,0.00,0,Wunderground v.1.15,2013-02-25 11:06:00,
2013-02-25 05:12:00,58.5,53.0,29.55,South,175,4.0,5.0,82,0.00,,,0.00,0,Wunderground v.1.15,2013-02-25 11:12:00,
2013-02-25 05:19:00,58.3,52.8,29.54,South,175,3.0,5.0,82,0.00,,,0.00,0,Wunderground v.1.15,2013-02-25 11:19:00,
2013-02-25 05:26:00,58.3,53.2,29.54,South,175,1.0,4.0,83,0.00,,,0.00,0,Wunderground v.1.15,2013-02-25 11:26:00,
2013-02-25 05:32:00,58.2,53.1,29.53,South,175,1.0,6.0,83,0.00,,,0.00,0,Wunderground v.1.15,2013-02-25 11:32:00,
2013-02-25 05:40:00,58.2,53.1,29.52,South,174,4.0,5.0,83,0.00,,,0.00,0,Wunderground v.1.15,2013-02-25 11:40:00,
2013-02-25 05:46:00,58.2,53.1,29.52,South,174,5.0,5.0,83,0.00,,,0.00,0,Wunderground v.1.15,2013-02-25 11:46:00,
2013-02-25 05:52:00,58.2,53.1,29.52,South,173,5.0,5.0,83,0.00,,,0.00,0,Wunderground v.1.15,2013-02-25 11:52:00,
2013-02-25 05:59:00,58.2,53.1,29.52,South,173,3.0,5.0,83,0.00,,,0.00,0,Wunderground v.1.15,2013-02-25 11:59:00,
2013-02-25 06:04:00,58.3,53.2,29.52,South,173,3.0,6.0,83,0.00,,,0.00,0,Wunderground v.1.15,2013-02-25 12:04:00,
2013-02-25 06:10:00,58.3,53.2,29.52,South,173,5.0,6.0,83,0.00,,,0.00,0,Wunderground v.1.15,2013-02-25 12:10:00,
2013-02-25 06:16:00,58.3,53.2,29.52,South,173,5.0,6.0,83,0.00,,,0.00,0,Wunderground v.1.15,2013-02-25 12:16:00,
2013-02-25 06:22:00,58.3,53.2,29.52,South,173,5.0,5.0,83,0.00,,,0.00,0,Wunderground v.1.15,2013-02-25 12:22:00,
2013-02-25 06:28:00,58.3,53.2,29.52,South,173,5.0,6.0,83,0.00,,,0.00,0,Wunderground v.1.15,2013-02-25 12:28:00,
2013-02-25 06:36:00,58.3,53.2,29.51,South,173,4.0,6.0,83,0.00,,,0.00,0,Wunderground v.1.15,2013-02-25 12:36:00,
2013-02-25 06:42:00,58.2,53.4,29.51,South,173,4.0,4.0,84,0.00,,,0.00,0,Wunderground v.1.15,2013-02-25 12:42:00,
2013-02-25 06:52:00,58.2,53.4,29.51,South,173,5.0,5.0,84,0.00,,,0.00,0,Wunderground v.1.15,2013-02-25 12:52:00,
2013-02-25 06:59:00,58.2,53.4,29.52,South,173,5.0,5.0,84,0.00,,,0.00,0,Wunderground v.1.15,2013-02-25 12:59:00,
2013-02-25 07:04:00,58.1,53.3,29.52,South,173,4.0,5.0,84,0.00,,,0.00,0,Wunderground v.1.15,2013-02-25 13:04:00,
2013-02-25 07:10:00,58.1,53.3,29.53,South,173,3.0,5.0,84,0.00,,,0.00,0,Wunderground v.1.15,2013-02-25 13:10:00,
2013-02-25 07:16:00,57.8,53.6,29.53,South,173,5.0,6.0,86,0.00,,,0.00,0,Wunderground v.1.15,2013-02-25 13:16:00,
2013-02-25 07:22:00,57.6,53.8,29.53,South,173,7.0,7.0,87,0.00,,,0.00,7,Wunderground v.1.15,2013-02-25 13:22:00,
2013-02-25 07:29:00,57.4,53.9,29.53,South,173,6.0,7.0,88,0.00,,,0.00,23,Wunderground v.1.15,2013-02-25 13:29:00,
2013-02-25 07:36:00,57.3,54.1,29.53,South,173,5.0,5.0,89,0.00,,,0.00,30,Wunderground v.1.15,2013-02-25 13:36:00,
2013-02-25 07:42:00,57.3,54.1,29.54,South,173,5.0,8.0,89,0.00,,,0.00,37,Wunderground v.1.15,2013-02-25 13:42:00,
2013-02-25 07:50:00,57.2,54.3,29.53,South,173,5.0,6.0,90,0.00,,,0.00,12,Wunderground v.1.15,2013-02-25 13:50:00,
2013-02-25 07:56:00,57.1,54.2,29.54,South,177,7.0,7.0,90,0.00,,,0.00,44,Wunderground v.1.15,2013-02-25 13:56:00,
2013-02-25 08:06:00,57.2,54.6,29.54,SSW,200,6.0,7.0,91,0.00,,,0.00,58,Wunderground v.1.15,2013-02-25 14:06:00,
2013-02-25 08:12:00,57.3,54.7,29.54,SSW,199,6.0,7.0,91,0.00,,,0.00,118,Wunderground v.1.15,2013-02-25 14:12:00,
2013-02-25 08:19:00,57.5,55.2,29.54,South,183,6.0,9.0,92,0.00,,,0.00,91,Wunderground v.1.15,2013-02-25 14:19:00,
2013-02-25 08:24:00,57.9,55.6,29.54,SSW,199,8.0,12.0,92,0.00,,,0.00,134,Wunderground v.1.15,2013-02-25 14:24:00,
2013-02-25 08:30:00,58.2,55.6,29.54,SSW,208,11.0,11.0,91,0.00,,,0.00,151,Wunderground v.1.15,2013-02-25 14:30:00,
2013-02-25 08:36:00,58.4,55.8,29.55,SSW,204,11.0,18.0,91,0.00,,,0.00,105,Wunderground v.1.15,2013-02-25 14:36:00,
2013-02-25 08:42:00,58.4,55.5,29.56,SW,225,11.0,11.0,90,0.00,,,0.00,102,Wunderground v.1.15,2013-02-25 14:42:00,
2013-02-25 08:49:00,58.0,52.9,29.56,WSW,244,12.0,15.0,83,0.00,,,0.00,125,Wunderground v.1.15,2013-02-25 14:49:00,
2013-02-25 08:56:00,57.8,51.3,29.55,WSW,237,12.0,12.0,79,0.00,,,0.00,128,Wunderground v.1.15,2013-02-25 14:56:00,
2013-02-25 09:02:00,57.6,50.1,29.55,WSW,249,11.0,14.0,76,0.00,,,0.00,151,Wunderground v.1.15,2013-02-25 15:02:00,
2013-02-25 09:08:00,57.4,48.1,29.55,WSW,250,12.0,14.0,71,0.00,,,0.00,174,Wunderground v.1.15,2013-02-25 15:08:00,
2013-02-25 09:14:00,57.3,47.6,29.55,WSW,251,12.0,16.0,70,0.00,,,0.00,160,Wunderground v.1.15,2013-02-25 15:14:00,
2013-02-25 09:20:00,57.3,46.8,29.55,WSW,238,11.0,15.0,68,0.00,,,0.00,153,Wunderground v.1.15,2013-02-25 15:20:00,
2013-02-25 09:26:00,57.3,46.4,29.55,WSW,250,11.0,15.0,67,0.00,,,0.00,190,Wunderground v.1.15,2013-02-25 15:26:00,
2013-02-25 09:32:00,57.7,46.0,29.56,WSW,258,11.0,14.0,65,0.00,,,0.00,257,Wunderground v.1.15,2013-02-25 15:32:00,
2013-02-25 09:39:00,57.9,46.6,29.55,SW,234,10.0,17.0,66,0.00,,,0.00,230,Wunderground v.1.15,2013-02-25 15:39:00,
2013-02-25 09:46:00,57.7,46.4,29.55,West,259,14.0,16.0,66,0.00,,,0.00,487,Wunderground v.1.15,2013-02-25 15:46:00,
2013-02-25 09:52:00,58.2,46.1,29.55,WSW,257,13.0,14.0,64,0.00,,,0.00,550,Wunderground v.1.15,2013-02-25 15:52:00,
2013-02-25 09:58:00,58.0,44.6,29.55,WSW,255,14.0,18.0,61,0.00,,,0.00,338,Wunderground v.1.15,2013-02-25 15:58:00,
2013-02-25 10:04:00,57.6,42.9,29.55,WSW,255,16.0,21.0,58,0.00,,,0.00,292,Wunderground v.1.15,2013-02-25 16:04:00,
2013-02-25 10:10:00,57.6,44.2,29.55,WSW,242,14.0,14.0,61,0.00,,,0.00,387,Wunderground v.1.15,2013-02-25 16:10:00,
2013-02-25 10:16:00,57.8,44.9,29.55,WNW,295,12.0,15.0,62,0.00,,,0.00,294,Wunderground v.1.15,2013-02-25 16:16:00,
2013-02-25 10:22:00,58.1,45.1,29.55,WSW,241,12.0,18.0,62,0.00,,,0.00,251,Wunderground v.1.15,2013-02-25 16:22:00,
2013-02-25 10:30:00,58.6,46.0,29.55,WSW,247,10.0,11.0,63,0.00,,,0.00,580,Wunderground v.1.15,2013-02-25 16:30:00,
2013-02-25 10:36:00,59.1,45.7,29.55,WSW,244,9.0,12.0,61,0.00,,,0.00,598,Wunderground v.1.15,2013-02-25 16:36:00,
2013-02-25 10:42:00,59.3,44.5,29.55,WSW,242,12.0,13.0,58,0.00,,,0.00,698,Wunderground v.1.15,2013-02-25 16:42:00,
2013-02-25 10:50:00,58.9,41.3,29.55,WSW,249,15.0,15.0,52,0.00,,,0.00,796,Wunderground v.1.15,2013-02-25 16:50:00,
2013-02-25 10:56:00,58.7,40.6,29.55,SW,214,15.0,16.0,51,0.00,,,0.00,427,Wunderground v.1.15,2013-02-25 16:56:00,
2013-02-25 11:02:00,58.7,40.1,29.55,WSW,246,14.0,18.0,50,0.00,,,0.00,397,Wunderground v.1.15,2013-02-25 17:02:00,
2013-02-25 11:08:00,58.8,39.1,29.55,WSW,242,15.0,18.0,48,0.00,,,0.00,369,Wunderground v.1.15,2013-02-25 17:08:00,
2013-02-25 11:14:00,59.0,38.2,29.56,West,273,15.0,22.0,46,0.00,,,0.00,519,Wunderground v.1.15,2013-02-25 17:14:00,
2013-02-25 11:20:00,59.3,37.4,29.55,WNW,291,15.0,15.0,44,0.00,,,0.00,947,Wunderground v.1.15,2013-02-25 17:20:00,
2013-02-25 11:26:00,59.4,36.9,29.56,WSW,250,14.0,17.0,43,0.00,,,0.00,404,Wunderground v.1.15,2013-02-25 17:26:00,
2013-02-25 11:32:00,59.6,36.5,29.55,SW,236,14.0,17.0,42,0.00,,,0.00,591,Wunderground v.1.15,2013-02-25 17:32:00,
2013-02-25 11:38:00,59.9,34.9,29.55,WSW,248,15.0,17.0,39,0.00,,,0.00,441,Wunderground v.1.15,2013-02-25 17:38:00,
2013-02-25 11:44:00,59.9,34.2,29.55,WSW,250,15.0,15.0,38,0.00,,,0.00,756,Wunderground v.1.15,2013-02-25 17:44:00,
2013-02-25 11:50:00,60.3,33.9,29.55,West,265,15.0,20.0,37,0.00,,,0.00,738,Wunderground v.1.15,2013-02-25 17:50:00,
2013-02-25 11:56:00,60.3,33.2,29.54,West,263,15.0,20.0,36,0.00,,,0.00,758,Wunderground v.1.15,2013-02-25 17:56:00,
2013-02-25 12:02:00,60.4,33.3,29.54,WSW,248,16.0,22.0,36,0.00,,,0.00,766,Wunderground v.1.15,2013-02-25 18:02:00,
2013-02-25 12:08:00,60.7,31.4,29.53,WSW,240,18.0,24.0,33,0.00,,,0.00,768,Wunderground v.1.15,2013-02-25 18:08:00,
2013-02-25 12:14:00,60.8,33.0,29.54,WSW,237,18.0,22.0,35,0.00,,,0.00,775,Wunderground v.1.15,2013-02-25 18:14:00,
2013-02-25 12:20:00,60.7,31.4,29.53,West,264,17.0,17.0,33,0.00,,,0.00,777,Wunderground v.1.15,2013-02-25 18:20:00,
2013-02-25 12:26:00,60.3,31.8,29.52,WSW,237,17.0,32.0,34,0.00,,,0.00,786,Wunderground v.1.15,2013-02-25 18:26:00,
2013-02-25 12:32:00,60.4,32.6,29.53,WSW,257,17.0,17.0,35,0.00,,,0.00,782,Wunderground v.1.15,2013-02-25 18:32:00,
2013-02-25 12:39:00,60.3,31.0,29.52,SW,234,16.0,20.0,33,0.00,,,0.00,793,Wunderground v.1.15,2013-02-25 18:39:00,
2013-02-25 12:46:00,60.2,31.0,29.52,West,271,16.0,17.0,33,0.00,,,0.00,791,Wunderground v.1.15,2013-02-25 18:46:00,
2013-02-25 12:52:00,60.4,31.1,29.51,WSW,249,15.0,15.0,33,0.00,,,0.00,789,Wunderground v.1.15,2013-02-25 18:52:00,
2013-02-25 12:59:00,60.3,31.0,29.51,West,271,16.0,23.0,33,0.00,,,0.00,793,Wunderground v.1.15,2013-02-25 18:59:00,
2013-02-25 13:04:00,60.6,30.6,29.51,West,276,16.0,16.0,32,0.00,,,0.00,791,Wunderground v.1.15,2013-02-25 19:04:00,
2013-02-25 13:10:00,60.7,29.9,29.50,WSW,245,17.0,17.0,31,0.00,,,0.00,793,Wunderground v.1.15,2013-02-25 19:10:00,
2013-02-25 13:16:00,60.9,28.4,29.51,WSW,258,17.0,23.0,29,0.00,,,0.00,791,Wunderground v.1.15,2013-02-25 19:16:00,
2013-02-25 13:22:00,60.6,29.8,29.51,West,271,18.0,20.0,31,0.00,,,0.00,789,Wunderground v.1.15,2013-02-25 19:22:00,
2013-02-25 13:28:00,60.5,29.7,29.50,SW,230,16.0,20.0,31,0.00,,,0.00,782,Wunderground v.1.15,2013-02-25 19:28:00,
2013-02-25 13:36:00,60.5,29.7,29.50,SW,229,17.0,23.0,31,0.00,,,0.00,788,Wunderground v.1.15,2013-02-25 19:36:00,
2013-02-25 13:42:00,60.8,29.9,29.49,WSW,244,18.0,23.0,31,0.00,,,0.00,788,Wunderground v.1.15,2013-02-25 19:42:00,
2013-02-25 13:50:00,60.2,28.6,29.49,West,269,19.0,19.0,30,0.00,,,0.00,798,Wunderground v.1.15,2013-02-25 19:50:00,
2013-02-25 13:56:00,60.3,30.3,29.49,WSW,240,20.0,20.0,32,0.00,,,0.00,810,Wunderground v.1.15,2013-02-25 19:56:00,
2013-02-25 14:02:00,60.5,31.2,29.49,WSW,257,19.0,21.0,33,0.00,,,0.00,884,Wunderground v.1.15,2013-02-25 20:02:00,
2013-02-25 14:08:00,60.0,32.9,29.49,WSW,257,18.0,21.0,36,0.00,,,0.00,322,Wunderground v.1.15,2013-02-25 20:08:00,
2013-02-25 14:14:00,60.4,33.3,29.49,WSW,248,16.0,23.0,36,0.00,,,0.00,977,Wunderground v.1.15,2013-02-25 20:14:00,
2013-02-25 14:20:00,59.7,32.0,29.49,WSW,246,18.0,18.0,35,0.00,,,0.00,374,Wunderground v.1.15,2013-02-25 20:20:00,
2013-02-25 14:26:00,58.8,31.9,29.49,WSW,241,19.0,23.0,36,0.00,,,0.00,246,Wunderground v.1.15,2013-02-25 20:26:00,
2013-02-25 14:32:00,58.7,31.8,29.49,SW,229,19.0,24.0,36,0.00,,,0.00,784,Wunderground v.1.15,2013-02-25 20:32:00,
2013-02-25 14:38:00,58.6,31.7,29.49,WSW,246,21.0,24.0,36,0.00,,,0.00,234,Wunderground v.1.15,2013-02-25 20:38:00,
2013-02-25 14:44:00,58.2,32.0,29.49,West,259,17.0,23.0,37,0.00,,,0.00,185,Wunderground v.1.15,2013-02-25 20:44:00,
2013-02-25 14:50:00,58.1,32.6,29.49,West,261,15.0,23.0,38,0.00,,,0.00,248,Wunderground v.1.15,2013-02-25 20:50:00,
2013-02-25 14:56:00,57.9,33.7,29.49,WSW,254,19.0,23.0,40,0.00,,,0.00,297,Wunderground v.1.15,2013-02-25 20:56:00,
2013-02-25 15:02:00,56.9,32.8,29.49,WNW,288,20.0,25.0,40,0.00,,,0.00,253,Wunderground v.1.15,2013-02-25 21:02:00,
2013-02-25 15:10:00,56.6,32.5,29.50,WSW,248,22.0,22.0,40,0.00,,,0.00,700,Wunderground v.1.15,2013-02-25 21:10:00,
2013-02-25 15:16:00,56.2,32.2,29.50,West,263,23.0,33.0,40,0.00,,,0.00,657,Wunderground v.1.15,2013-02-25 21:16:00,
2013-02-25 15:22:00,56.2,31.5,29.51,WSW,250,22.0,29.0,39,0.00,,,0.00,573,Wunderground v.1.15,2013-02-25 21:22:00,
2013-02-25 15:30:00,55.1,30.6,29.50,West,261,22.0,24.0,39,0.00,,,0.00,557,Wunderground v.1.15,2013-02-25 21:30:00,
2013-02-25 15:36:00,54.9,31.0,29.51,WSW,257,23.0,26.0,40,0.00,,,0.00,561,Wunderground v.1.15,2013-02-25 21:36:00,
2013-02-25 15:42:00,54.4,30.6,29.52,SW,235,23.0,23.0,40,0.00,,,0.00,520,Wunderground v.1.15,2013-02-25 21:42:00,
2013-02-25 15:48:00,53.9,30.1,29.52,WSW,245,24.0,26.0,40,0.00,,,0.01,503,Wunderground v.1.15,2013-02-25 21:48:00,
2013-02-25 15:54:00,53.3,29.6,29.52,SW,233,21.0,23.0,40,0.00,,,0.01,105,Wunderground v.1.15,2013-02-25 21:54:00,
2013-02-25 16:00:00,52.6,29.5,29.52,WSW,248,16.0,19.0,41,0.00,,,0.01,128,Wunderground v.1.15,2013-02-25 22:00:00,
2013-02-25 16:06:00,52.4,30.0,29.52,WSW,241,17.0,23.0,42,0.00,,,0.01,169,Wunderground v.1.15,2013-02-25 22:06:00,
2013-02-25 16:12:00,52.4,30.0,29.52,West,261,17.0,20.0,42,0.00,,,0.01,142,Wunderground v.1.15,2013-02-25 22:12:00,
2013-02-25 16:20:00,51.9,29.5,29.52,WSW,254,19.0,19.0,42,0.00,,,0.01,104,Wunderground v.1.15,2013-02-25 22:20:00,
2013-02-25 16:26:00,51.5,29.7,29.52,WSW,238,18.0,22.0,43,0.00,,,0.01,90,Wunderground v.1.15,2013-02-25 22:26:00,
2013-02-25 16:32:00,51.5,30.3,29.51,WSW,249,17.0,25.0,44,0.00,,,0.01,202,Wunderground v.1.15,2013-02-25 22:32:00,
2013-02-25 16:38:00,51.6,30.9,29.52,WSW,244,18.0,25.0,45,0.00,,,0.01,144,Wunderground v.1.15,2013-02-25 22:38:00,
2013-02-25 16:44:00,51.0,30.9,29.53,West,259,20.0,29.0,46,0.00,,,0.01,127,Wunderground v.1.15,2013-02-25 22:44:00,
2013-02-25 16:50:00,50.4,30.4,29.53,WSW,249,22.0,22.0,46,0.00,,,0.01,151,Wunderground v.1.15,2013-02-25 22:50:00,
2013-02-25 16:56:00,50.2,30.7,29.53,SW,214,21.0,28.0,47,0.00,,,0.01,104,Wunderground v.1.15,2013-02-25 22:56:00,
2013-02-25 17:02:00,50.0,31.1,29.53,WSW,248,18.0,19.0,48,0.00,,,0.01,81,Wunderground v.1.15,2013-02-25 23:02:00,
2013-02-25 17:10:00,49.8,31.4,29.53,WSW,244,15.0,20.0,49,0.00,,,0.01,39,Wunderground v.1.15,2013-02-25 23:10:00,
2013-02-25 17:16:00,49.7,31.3,29.54,WSW,241,15.0,20.0,49,0.00,,,0.01,30,Wunderground v.1.15,2013-02-25 23:16:00,
2013-02-25 17:22:00,49.5,31.1,29.54,West,266,17.0,26.0,49,0.00,,,0.01,32,Wunderground v.1.15,2013-02-25 23:22:00,
2013-02-25 17:30:00,49.2,30.8,29.54,WSW,246,20.0,20.0,49,0.00,,,0.01,37,Wunderground v.1.15,2013-02-25 23:30:00,
2013-02-25 17:36:00,49.1,30.7,29.55,West,261,20.0,20.0,49,0.00,,,0.01,30,Wunderground v.1.15,2013-02-25 23:36:00,
2013-02-25 17:42:00,48.9,30.6,29.55,SW,236,20.0,22.0,49,0.00,,,0.01,16,Wunderground v.1.15,2013-02-25 23:42:00,
2013-02-25 17:50:00,48.7,30.9,29.56,WSW,242,21.0,24.0,50,0.00,,,0.01,18,Wunderground v.1.15,2013-02-25 23:50:00,
2013-02-25 17:56:00,48.5,30.7,29.55,WSW,257,20.0,24.0,50,0.00,,,0.01,39,Wunderground v.1.15,2013-02-25 23:56:00,
2013-02-25 18:02:00,48.3,31.0,29.55,WSW,248,20.0,24.0,51,0.00,,,0.01,14,Wunderground v.1.15,2013-02-26 00:02:00,
2013-02-25 18:09:00,47.9,30.6,29.56,West,276,19.0,24.0,51,0.00,,,0.01,9,Wunderground v.1.15,2013-02-26 00:09:00,
2013-02-25 18:16:00,47.4,30.6,29.56,WSW,255,18.0,21.0,52,0.00,,,0.01,0,Wunderground v.1.15,2013-02-26 00:16:00,
2013-02-25 18:22:00,47.3,31.0,29.56,WSW,255,16.0,19.0,53,0.00,,,0.01,0,Wunderground v.1.15,2013-02-26 00:22:00,
2013-02-25 18:29:00,47.1,31.3,29.57,WSW,257,17.0,19.0,54,0.00,,,0.01,0,Wunderground v.1.15,2013-02-26 00:29:00,
2013-02-25 18:34:00,46.9,31.6,29.57,WSW,248,18.0,24.0,55,0.00,,,0.01,0,Wunderground v.1.15,2013-02-26 00:34:00,
2013-02-25 18:40:00,46.3,31.9,29.57,West,269,17.0,18.0,57,0.00,,,0.01,0,Wunderground v.1.15,2013-02-26 00:40:00,
2013-02-25 18:46:00,45.8,32.3,29.58,WSW,253,17.0,24.0,59,0.00,,,0.01,0,Wunderground v.1.15,2013-02-26 00:46:00,
2013-02-25 18:52:00,45.6,32.5,29.58,WSW,238,19.0,24.0,60,0.00,,,0.01,0,Wunderground v.1.15,2013-02-26 00:52:00,
2013-02-25 18:59:00,45.4,32.7,29.59,WSW,252,17.0,24.0,61,0.00,,,0.01,0,Wunderground v.1.15,2013-02-26 00:59:00,
2013-02-25 19:06:00,45.1,32.4,29.59,WSW,242,18.0,28.0,61,0.00,,,0.01,0,Wunderground v.1.15,2013-02-26 01:06:00,
2013-02-25 19:12:00,45.0,32.8,29.59,WSW,246,21.0,25.0,62,0.00,,,0.01,0,Wunderground v.1.15,2013-02-26 01:12:00,
2013-02-25 19:20:00,44.9,32.7,29.60,West,261,18.0,18.0,62,0.00,,,0.01,0,Wunderground v.1.15,2013-02-26 01:20:00,
2013-02-25 19:26:00,44.8,33.0,29.60,West,265,16.0,18.0,63,0.00,,,0.01,0,Wunderground v.1.15,2013-02-26 01:26:00,
2013-02-25 19:32:00,44.7,32.9,29.60,West,259,15.0,19.0,63,0.00,,,0.01,0,Wunderground v.1.15,2013-02-26 01:32:00,
2013-02-25 19:39:00,44.5,32.7,29.60,West,269,17.0,19.0,63,0.00,,,0.01,0,Wunderground v.1.15,2013-02-26 01:39:00,
2013-02-25 19:46:00,44.2,32.4,29.61,West,262,18.0,25.0,63,0.00,,,0.01,0,Wunderground v.1.15,2013-02-26 01:46:00,
2013-02-25 19:52:00,44.1,32.7,29.61,West,260,17.0,17.0,64,0.00,,,0.01,0,Wunderground v.1.15,2013-02-26 01:52:00,
2013-02-25 19:59:00,44.0,32.6,29.61,WSW,245,14.0,17.0,64,0.00,,,0.01,0,Wunderground v.1.15,2013-02-26 01:59:00,
2013-02-25 20:06:00,43.7,31.9,29.61,WSW,252,19.0,21.0,63,0.00,,,0.01,0,Wunderground v.1.15,2013-02-26 02:06:00,
2013-02-25 20:12:00,43.6,32.2,29.62,West,261,19.0,19.0,64,0.00,,,0.01,0,Wunderground v.1.15,2013-02-26 02:12:00,
2013-02-25 20:19:00,43.6,32.2,29.62,WSW,246,17.0,19.0,64,0.00,,,0.01,0,Wunderground v.1.15,2013-02-26 02:19:00,
2013-02-25 20:26:00,43.5,32.1,29.63,WNW,285,15.0,21.0,64,0.00,,,0.01,0,Wunderground v.1.15,2013-02-26 02:26:00,
2013-02-25 20:32:00,43.4,31.6,29.63,WSW,254,16.0,19.0,63,0.00,,,0.01,0,Wunderground v.1.15,2013-02-26 02:32:00,
2013-02-25 20:39:00,43.3,31.5,29.63,WNW,289,19.0,19.0,63,0.00,,,0.01,0,Wunderground v.1.15,2013-02-26 02:39:00,
2013-02-25 20:46:00,43.2,31.8,29.64,West,271,18.0,22.0,64,0.00,,,0.01,0,Wunderground v.1.15,2013-02-26 02:46:00,
2013-02-25 20:52:00,43.1,31.7,29.64,WNW,292,18.0,26.0,64,0.00,,,0.01,0,Wunderground v.1.15,2013-02-26 02:52:00,
2013-02-25 20:59:00,43.1,32.1,29.64,West,275,17.0,26.0,65,0.00,,,0.01,0,Wunderground v.1.15,2013-02-26 02:59:00,
2013-02-25 21:06:00,43.1,32.1,29.64,West,269,14.0,15.0,65,0.00,,,0.01,0,Wunderground v.1.15,2013-02-26 03:06:00,
2013-02-25 21:12:00,43.2,32.2,29.65,WNW,302,14.0,14.0,65,0.00,,,0.01,0,Wunderground v.1.15,2013-02-26 03:12:00,
2013-02-25 21:18:00,43.3,32.3,29.65,WNW,283,16.0,25.0,65,0.00,,,0.01,0,Wunderground v.1.15,2013-02-26 03:18:00,
2013-02-25 21:26:00,43.3,31.9,29.65,West,275,15.0,15.0,64,0.00,,,0.01,0,Wunderground v.1.15,2013-02-26 03:26:00,
2013-02-25 21:32:00,43.3,32.3,29.66,West,262,16.0,16.0,65,0.00,,,0.01,0,Wunderground v.1.15,2013-02-26 03:32:00,
2013-02-25 21:38:00,43.3,32.3,29.66,West,265,14.0,19.0,65,0.00,,,0.01,0,Wunderground v.1.15,2013-02-26 03:38:00,
2013-02-25 21:46:00,43.3,32.3,29.66,WNW,292,17.0,28.0,65,0.00,,,0.01,0,Wunderground v.1.15,2013-02-26 03:46:00,
2013-02-25 21:52:00,43.3,32.3,29.67,WNW,294,16.0,27.0,65,0.00,,,0.01,0,Wunderground v.1.15,2013-02-26 03:52:00,
2013-02-25 22:00:00,43.2,32.2,29.67,West,265,17.0,26.0,65,0.00,,,0.01,0,Wunderground v.1.15,2013-02-26 04:00:00,
2013-02-25 22:06:00,43.2,32.2,29.67,West,279,16.0,26.0,65,0.00,,,0.01,0,Wunderground v.1.15,2013-02-26 04:06:00,
2013-02-25 22:12:00,43.1,32.1,29.67,West,280,15.0,16.0,65,0.00,,,0.01,0,Wunderground v.1.15,2013-02-26 04:12:00,
2013-02-25 22:18:00,43.1,32.1,29.67,West,279,14.0,23.0,65,0.00,,,0.01,0,Wunderground v.1.15,2013-02-26 04:18:00,
2013-02-25 22:24:00,43.1,32.1,29.68,WNW,289,14.0,20.0,65,0.00,,,0.01,0,Wunderground v.1.15,2013-02-26 04:24:00,
2013-02-25 22:30:00,43.1,32.1,29.67,WNW,285,14.0,14.0,65,0.00,,,0.01,0,Wunderground v.1.15,2013-02-26 04:30:00,
2013-02-25 22:36:00,43.2,32.2,29.67,West,264,15.0,15.0,65,0.00,,,0.01,0,Wunderground v.1.15,2013-02-26 04:36:00,
2013-02-25 22:42:00,43.3,32.3,29.68,WNW,294,16.0,22.0,65,0.00,,,0.01,0,Wunderground v.1.15,2013-02-26 04:42:00,
2013-02-25 22:48:00,43.3,32.3,29.68,West,275,16.0,22.0,65,0.00,,,0.01,0,Wunderground v.1.15,2013-02-26 04:48:00,
2013-02-25 22:54:00,43.3,32.3,29.67,WNW,297,15.0,21.0,65,0.00,,,0.01,0,Wunderground v.1.15,2013-02-26 04:54:00,
2013-02-25 23:00:00,43.3,32.3,29.68,WNW,286,16.0,16.0,65,0.00,,,0.01,0,Wunderground v.1.15,2013-02-26 05:00:00,
2013-02-25 23:04:00,43.3,32.7,29.68,West,270,15.0,16.0,66,0.00,,,0.01,0,Wunderground v.1.15,2013-02-26 05:04:00,
2013-02-25 23:10:00,43.3,32.7,29.68,WNW,301,14.0,16.0,66,0.00,,,0.01,0,Wunderground v.1.15,2013-02-26 05:10:00,
2013-02-25 23:12:00,43.3,32.7,29.68,WNW,298,14.0,16.0,66,0.00,,,0.01,0,Wunderground v.1.15,2013-02-26 05:12:00,
2013-02-25 23:18:00,43.3,32.7,29.68,West,274,14.0,16.0,66,0.00,,,0.01,0,Wunderground v.1.15,2013-02-26 05:18:00,
2013-02-25 23:26:00,43.3,33.1,29.68,WSW,258,13.0,22.0,67,0.00,,,0.01,0,Wunderground v.1.15,2013-02-26 05:26:00,
2013-02-25 23:32:00,43.3,33.1,29.68,WNW,284,14.0,15.0,67,0.00,,,0.01,0,Wunderground v.1.15,2013-02-26 05:32:00,
2013-02-25 23:38:00,43.3,32.7,29.68,WNW,286,17.0,25.0,66,0.00,,,0.01,0,Wunderground v.1.15,2013-02-26 05:38:00,
2013-02-25 23:44:00,43.3,33.1,29.68,West,275,17.0,18.0,67,0.00,,,0.01,0,Wunderground v.1.15,2013-02-26 05:44:00,
2013-02-25 23:50:00,43.3,32.7,29.68,NW,309,16.0,16.0,66,0.00,,,0.01,0,Wunderground v.1.15,2013-02-26 05:50:00,
2013-02-25 23:56:00,43.2,32.6,29.68,West,277,16.0,23.0,66,0.00,,,0.01,0,Wunderground v.1.15,2013-02-26 05:56:00,